Date String (YYYY-MM-DD hh:mm:ss) UTC,Instrument flags,absolute air pressure of the measurement (hPa),sample flow rate (lpm),inlet stack bypass flow (lpm),air temperature of the measurement (°C),ambient temperature measured by the external sensor (°C),aerosol sample conditioner tube jacket temperature (°C),OPC LED temperature (°C),internal box temperature (°C),relative humidity of the measurement (%),span deviation,mass concentration of particles derived from Lorenz-Mie calculation of OPC scattering (μg/m³),mass concentration of particles derived from Lorenz-Mie calculation of OPC scattering (μg/m³),mass concentration of particles derived from Lorenz-Mie calculation of OPC scattering (μg/m³)
DateTimeUTC,F1_M11,P_M11,Q1_M11,Q2_M11,T1_M11,T2_M11,T3_M11,T4_M11,T5_M11,U1_M11,ZSPAN_M11,X0_M11,X2_M11,X1_M11
2023-11-13 13:00:00,SystemResetWarning,0835.9,5.00,000.00,023.4,022.3,000.0,031.8,024.7,9.5,0000.0,0009.47,0004.07,0003.23
2023-11-13 13:01:00,SystemResetWarning,0836.0,5.00,000.00,023.3,022.2,000.0,031.8,024.7,9.5,0000.0,0009.43,0004.04,0003.23
2023-11-13 13:02:00,SystemResetWarning,0836.0,5.00,000.00,023.3,022.2,000.0,031.8,024.7,9.5,0000.0,0009.38,0004.00,0003.23
2023-11-13 13:03:00,SystemResetWarning,0836.0,5.00,000.00,023.3,022.2,000.0,031.8,024.7,9.5,0000.0,0009.31,0003.97,0003.23
2023-11-13 13:04:00,SystemResetWarning,0836.0,5.00,000.00,023.3,022.3,000.0,031.7,024.8,9.5,0000.0,0009.49,0003.96,0003.22
2023-11-13 13:05:00,SystemResetWarning,0836.0,5.00,000.00,023.3,022.3,000.0,031.7,024.7,9.5,0000.0,0009.80,0003.98,0003.20
2023-11-13 13:06:00,SystemResetWarning,0836.0,5.00,000.00,023.3,022.3,000.0,031.7,024.7,9.5,0000.0,0009.45,0003.99,0003.20
2023-11-13 13:07:00,SystemResetWarning,0836.0,5.00,000.00,023.3,022.2,000.0,031.7,024.7,9.5,0000.0,0009.20,0003.99,0003.20
2023-11-13 13:08:00,SystemResetWarning,0835.9,5.00,000.00,023.3,022.3,000.0,031.7,024.7,9.5,0000.0,0008.94,0003.95,0003.19
2023-11-13 13:09:00,SystemResetWarning,0835.9,5.00,000.00,023.3,022.3,000.0,031.7,024.7,9.5,0000.0,0008.90,0003.90,0003.18
2023-11-13 13:10:00,SystemResetWarning,0835.9,5.00,000.00,023.3,022.3,000.0,031.7,024.7,9.5,0000.0,0008.43,0003.83,0003.16
2023-11-13 13:11:00,SystemResetWarning,0835.9,5.00,000.00,023.3,022.3,000.0,031.7,024.7,9.5,0000.0,0008.33,0003.78,0003.14
2023-11-13 13:12:00,SystemResetWarning,0835.9,5.00,000.00,023.3,022.3,000.0,031.7,024.7,9.5,0000.0,0008.56,0003.75,0003.11
2023-11-13 13:13:00,SystemResetWarning,0835.9,5.00,000.00,023.3,022.3,000.0,031.7,024.8,9.5,0000.0,0008.49,0003.75,0003.10
2023-11-13 13:14:00,SystemResetWarning,0835.9,5.00,000.00,023.3,022.3,000.0,031.7,024.8,9.5,0000.0,0008.66,0003.76,0003.08
2023-11-13 13:15:00,SystemResetWarning,0835.9,5.00,000.00,023.3,022.3,000.0,031.7,024.8,9.5,0000.0,0008.74,0003.74,0003.07
2023-11-13 13:16:00,SystemResetWarning,0835.9,5.00,000.00,023.3,022.4,000.0,031.7,024.7,9.5,0000.0,0008.30,0003.66,0003.08
2023-11-13 13:17:00,SystemResetWarning,0835.9,5.00,000.00,023.3,022.4,000.0,031.7,024.8,9.5,0000.0,0008.43,0003.66,0003.09
2023-11-13 13:18:00,SystemResetWarning,0835.9,5.00,000.00,023.3,022.4,000.0,031.7,024.8,9.5,0000.0,0008.57,0003.68,0003.10
2023-11-13 13:19:00,SystemResetWarning,0835.9,4.99,000.00,023.4,022.4,000.0,031.7,024.8,9.5,0000.0,0008.72,0003.72,0003.11
2023-11-13 13:20:00,SystemResetWarning,0835.9,5.00,000.00,023.4,022.4,000.0,031.7,024.8,9.5,0000.0,0008.57,0003.71,0003.12
2023-11-13 13:21:00,SystemResetWarning,0835.9,5.00,000.00,023.4,022.4,000.0,031.7,024.8,9.5,0000.0,0008.35,0003.69,0003.11
2023-11-13 13:22:00,SystemResetWarning,0835.9,5.00,000.00,023.4,022.4,000.0,031.7,024.8,9.5,0000.0,0008.54,0003.75,0003.14
2023-11-13 13:23:00,SystemResetWarning,0835.9,4.99,000.00,023.4,022.4,000.0,031.7,024.8,9.5,0000.0,0008.41,0003.81,0003.16
2023-11-13 13:24:00,SystemResetWarning,0835.9,5.00,000.00,023.4,022.4,000.0,031.7,024.8,9.5,0000.0,0009.02,0003.82,0003.17
2023-11-13 13:25:00,SystemResetWarning,0835.9,5.00,000.00,023.4,022.4,000.0,031.7,024.8,9.5,0000.0,0009.52,0003.87,0003.22
2023-11-13 13:26:00,SystemResetWarning,0835.9,5.00,000.00,023.4,022.4,000.0,031.7,024.8,9.5,0000.0,0009.15,0003.88,0003.24
2023-11-13 13:27:00,SystemResetWarning,0835.9,5.00,000.00,023.4,022.4,000.0,031.7,024.8,9.5,0000.0,0009.17,0003.94,0003.27
2023-11-13 13:28:00,SystemResetWarning,0835.9,5.00,000.00,023.4,022.4,000.0,031.7,024.8,9.5,0000.0,0008.81,0003.97,0003.30
2023-11-13 13:29:00,SystemResetWarning,0835.9,5.00,000.00,023.4,022.4,000.0,031.7,024.8,9.5,0000.0,0008.89,0004.01,0003.32
2023-11-13 13:30:00,SystemResetWarning,0835.9,5.00,000.00,023.4,022.4,000.0,031.7,024.8,9.5,0000.0,0009.30,0004.01,0003.32
2023-11-13 13:31:00,SystemResetWarning,0835.9,5.01,000.00,023.4,022.4,000.0,031.7,024.8,9.5,0000.0,0009.57,0004.05,0003.34
2023-11-13 13:32:00,SystemResetWarning,0835.9,5.01,000.00,023.4,022.4,000.0,031.7,024.8,9.5,0000.0,0009.91,0004.10,0003.36
2023-11-13 13:33:00,SystemResetWarning,0835.9,5.00,000.00,023.4,022.4,000.0,031.7,024.8,9.5,0000.0,0009.84,0004.09,0003.37
2023-11-13 13:34:00,SystemResetWarning,0835.9,4.99,000.00,023.4,022.4,000.0,031.7,024.8,9.5,0000.0,0009.59,0004.03,0003.37
2023-11-13 13:35:00,SystemResetWarning,0835.9,5.01,000.00,023.4,022.4,000.0,031.7,024.8,9.5,0000.0,0009.13,0004.03,0003.39
2023-11-13 13:36:00,SystemResetWarning,0835.9,5.01,000.00,023.4,022.4,000.0,031.7,024.8,9.5,0000.0,0008.67,0004.03,0003.40
2023-11-13 13:37:00,SystemResetWarning,0835.9,5.00,000.00,023.3,022.4,000.0,031.7,024.7,9.5,0000.0,0008.66,0004.03,0003.40
2023-11-13 13:38:00,SystemResetWarning,0835.9,5.00,000.00,023.3,022.4,000.0,031.7,024.7,9.5,0000.0,0009.11,0004.06,0003.41
2023-11-13 13:39:00,SystemResetWarning,0835.8,4.99,000.00,023.3,022.3,000.0,031.7,024.7,9.5,0000.0,0009.61,0004.09,0003.41
2023-11-13 13:40:00,SystemResetWarning,0835.8,4.99,000.00,023.3,022.3,000.0,031.7,024.8,9.5,0000.0,0010.01,0004.10,0003.41
2023-11-13 13:41:00,SystemResetWarning,0835.8,5.00,000.00,023.3,022.3,000.0,031.7,024.8,9.6,0000.0,0009.84,0004.12,0003.42
2023-11-13 13:42:00,SystemResetWarning,0835.8,5.00,000.00,023.3,022.3,000.0,031.7,024.8,9.6,0000.0,0010.14,0004.11,0003.41
2023-11-13 13:43:00,SystemResetWarning,0835.7,5.02,000.00,023.3,022.3,000.0,031.7,024.8,9.6,0000.0,0010.77,0004.16,0003.41
2023-11-13 13:44:00,SystemResetWarning,0835.7,5.00,000.00,023.3,022.3,000.0,031.7,024.7,9.6,0000.0,0010.90,0004.20,0003.42
2023-11-13 13:45:00,SystemResetWarning,0835.7,5.00,000.00,023.3,022.3,000.0,031.7,024.7,9.6,0000.0,0011.25,0004.26,0003.42
2023-11-13 13:46:00,SystemResetWarning,0835.7,5.00,000.00,023.3,022.3,000.0,031.7,024.7,9.6,0000.0,0012.11,0004.32,0003.42
2023-11-13 13:47:00,SystemResetWarning,0835.7,5.00,000.00,023.3,022.3,000.0,031.7,024.7,9.6,0000.0,0012.11,0004.32,0003.41
2023-11-13 13:48:00,SystemResetWarning,0835.7,4.99,000.00,023.3,022.3,000.0,031.7,024.7,9.6,0000.0,0012.22,0004.31,0003.41
2023-11-13 13:49:00,SystemResetWarning,0835.7,4.99,000.00,023.3,022.3,000.0,031.7,024.8,9.6,0000.0,0012.06,0004.29,0003.40
2023-11-13 13:50:00,SystemResetWarning,0835.6,5.00,000.00,023.3,022.3,000.0,031.7,024.7,9.6,0000.0,0011.92,0004.30,0003.39
2023-11-13 13:51:00,SystemResetWarning,0835.6,5.00,000.00,023.3,022.3,000.0,031.7,024.7,9.6,0000.0,0011.78,0004.29,0003.38
2023-11-13 13:52:00,SystemResetWarning,0835.6,5.02,000.00,023.3,022.2,000.0,031.7,024.7,9.6,0000.0,0011.80,0004.34,0003.37
2023-11-13 13:53:00,SystemResetWarning,0835.7,4.98,000.00,023.3,022.2,000.0,031.7,024.6,9.6,0000.0,0011.37,0004.37,0003.37
2023-11-13 13:54:00,SystemResetWarning,0835.7,5.00,000.00,023.2,022.2,000.0,031.6,024.6,9.6,0000.0,0011.14,0004.32,0003.36
2023-11-13 13:55:00,SystemResetWarning,0835.7,5.00,000.00,023.2,022.1,000.0,031.6,024.6,9.6,0000.0,0011.63,0004.29,0003.35
2023-11-13 13:56:00,SystemResetWarning,0835.8,5.00,000.00,023.2,022.2,000.0,031.6,024.6,9.6,0000.0,0011.55,0004.26,0003.34
2023-11-13 13:57:00,SystemResetWarning,0835.8,5.00,000.00,023.2,022.2,000.0,031.6,024.7,9.6,0000.0,0012.08,0004.25,0003.34
2023-11-13 13:58:00,SystemResetWarning,0835.8,5.01,000.00,023.2,022.2,000.0,031.6,024.7,9.6,0000.0,0012.44,0004.22,0003.33
2023-11-13 13:59:00,SystemResetWarning,0835.7,5.01,000.00,023.2,022.2,000.0,031.6,024.7,9.6,0000.0,0012.32,0004.24,0003.33
